Regional Weather Roundup
Issued by NWS

Home | Current Version | Previous Version | Graphics & Text | Print | Product List | Glossary On
Versions: 1 2 3 4 5 6 7 8 9 10 11 12 13 14 15 16 17 18 19 20 21 22 23 24 25 26 27 28 29 30 31 32 33 34 35 36 37 38 39 40 41 42 43 44 45 46 47 48 49 50
000
ASUS45 KCYS 271310
RWRWY

WYOMING REGIONAL WEATHER ROUNDUP
NATIONAL WEATHER SERVICE CHEYENNE WY
700 AM MDT SUN JUL 27 2014

NOTE:  "FAIR" INDICATES FEW OR NO CLOUDS BELOW 12,000 FEET
WITH NO SIGNIFICANT WEATHER AND/OR OBSTRUCTIONS TO VISIBILITY.

WYZ001-271400-
YELLOWSTONE NATIONAL PARK

CITY           SKY/WX    TMP DP  RH WIND       PRES   REMARKS
LK YELLOWSTONE   N/A     36  31  82 CALM      30.53R
W YELLOWSTONE  NOT AVBL

$$
WYZ002>013-054>058-071-098>099-271400-
NORTHERN WYOMING

CITY           SKY/WX    TMP DP  RH WIND       PRES   REMARKS
JACKSON        CLEAR     39  30  70 CALM      30.44R
CODY           NOT AVBL
GREYBULL       SUNNY     54  36  50 SE5       30.31R
WORLAND        CLEAR     56  33  42 SW6       30.32R
SHERIDAN       SUNNY     51  43  74 S6        30.34R
BUFFALO        SUNNY     59  38  45 NW5       30.39R
GILLETTE       SUNNY     53  43  68 CALM      30.35R
HULETT         FAIR      54  46  76 MISG      30.35
NEWCASTLE      FAIR      55  36  47 SE6       30.34

$$
WYZ014>020-022>026-101>103-271400-
CENTRAL WYOMING

CITY           SKY/WX    TMP DP  RH WIND       PRES   REMARKS
BIG PINEY      PTCLDY    42  23  46 N5        30.46R
PINEDALE       SUNNY     41  32  70 W5        30.46R
DUBOIS         FAIR      43  28  56 NW10      30.49R
LANDER         CLEAR     59  34  39 NW6       30.38R
RIVERTON       CLEAR     61  34  36 NE10      30.39R
CASPER         SUNNY     52  39  61 CALM      30.38R
DOUGLAS        SUNNY     55  42  61 CALM      30.38R

$$
WYZ021-027>030-104>119-271400-
SOUTHERN WYOMING

CITY           SKY/WX    TMP DP  RH WIND       PRES   REMARKS
EVANSTON       CLEAR     59  26  28 NE7       30.41R
KEMMERER       MOSUNNY   52  27  37 N13       30.45R
FORT BRIDGER   FAIR      58  25  28 N3        30.45R
ROCK SPRINGS   PTCLDY    58  31  35 NE10      30.42R
DIXON          FAIR      51  42  72 SE3       30.41R
RAWLINS        CLEAR     58  34  40 NE13      30.41R
SARATOGA       FAIR      48  41  76 CALM      30.43R
LARAMIE        SUNNY     52  47  83 CALM      30.44R
CHEYENNE       CLOUDY    61  57  87 NE6       30.40R
TORRINGTON     PTSUNNY   61  47  59 NE5       30.32R
PINE BLUFFS    CLOUDY    61  59  94 NE3       30.36R

$$


USA.gov is the U.S. government's official web portal to all federal, state and local government web resources and services.